STARLINK-36878, 67899

Orbit data source: Space-Track

STARLINK-36878, 67899 is a payload satellite owned by SpaceX/Seattle (US) in SSO that was launched on Sat, 21 Feb 2026 UTC via an FALCON 9 launch vehicle from the Air Force Western Test Range (AFWTR). Payload-class satellites include a variety of spacecraft equipped with specific instruments for various scientific and technological missions. These include communications satellites like Starlink; space stations such as the ISS; scientific satellites like the Hubble; Earth observation satellites from companies like Planet Labs, Umbra, and HawkEye 360; GPS; miniature CubeSats for education and research; and military/defense satellites.

Loading next visibility...
Identifier
67899, 2026-035W
Orbit
SSO
Country
Flag of USUS
Related business
Manufacturer
SpaceX/Seattle
Mission
Operational Commercial Communications
Bus & Motor
STARLINK V2MO, Unknown motor
Mass
575 kg wet, ~530 kg dry
Launch date (UTC)
2026-02-21 (4 months ago)
Launch vehicle
FALCON 9
Launch site
Air Force Western Test Range (AFWTR)
Object type
Payload
Rocket body
Debris
Shape & HBR
Box + 2 Pan, 17.7 m
Radar Cross Section
36.964 m², Large (>1 m²)

Expand to show TLE details & history
Last TLE update: 11 hours ago

TLE from 11 hours ago
0 STARLINK-36878
1 67899U 26035W   26171.40279461  .00012563  00000-0  39077-3 0  9991
2 67899  97.2829 104.6265 0001596 115.8327 244.3080 15.33447793 19737
Epoch: 2026-06-20T09:40Z
TLE epoch observation values (Epoch: 2026-06-20T09:40:01.454Z)
Latitude
-0.00006°
Longitude
51.00252°
Altitude
469.121 km
Speed
7.631 km/s
True Right ascension
06h 58m 30s
True Declination
0° 00' 00"
Sunlit
Object was in daylight at epoch
Visualization orbit readout
Latitude
Unknown
Longitude
Unknown
Altitude
Unknown
Speed
Unknown
Apparent Right ascension
Unknown
Apparent Declination
Unknown
Sunlit
N/A
Visualization observer readout
Local Sidereal Time
07:18:24
Azimuth
Unknown
Elevation
Unknown
Doppler factor
Unknown
Orbital elements
Apogee altitude
463.569 km
Perigee altitude
461.386 km
Semi-major axis
6,840.615 km
Eccentricity
0.00016
Inclination
97.2829°
RAAN
104.6265°
Arg. of periapsis
115.8327°
True anomaly
244.29152°
Mean anomaly
244.308°
Eccentric anomaly
244.29976°
Mean motion
3.83619 °/min
Orbital period
93.84 mins
BSTAR
0.00039077
Loading maneuver chart data...
Computing Atmospheric mass density...
Loading historical data...
Loading historical data...
Loading historical data...
Loading historical data...
Loading historical data...
Loading historical data...
Loading historical data...

Documentation

Showing up to 5 results
|